weather.gov     
National Weather Service

Terminal Aerodrome Forecast
NWS Homepage
This page is being discontinued on March 12, 2014.
The same data is available at this site. Please update your bookmarks.
Thank you, and we apologize for the inconvenience.
Please send an email to SR-SRH.Webmaster@noaa.gov with any concerns.


Current Version
Previous Version:    01  02  03  04  05  06  07  08  09  10  11  12  13  14  15  16  17  18  19  20  21  22  23  24  25  26  27  28  29  30  
   31  32  33  34  35  36  37  38  39  40  41  
[Printable]
907
FTUS44 KLCH 011100
TAFLCH
TAF
KLCH 011131Z 0112/0212 12004KT 6SM BR VCSH FEW005 SCT012 BKN040
      TEMPO 0112/0114 -SHRA BKN012 OVC050
     FM011400 15008KT P6SM VCSH SCT025 BKN050
     FM011800 17010KT P6SM VCSH SCT040
     FM012300 15006KT P6SM FEW025 SCT100
     FM020700 VRB03KT 4SM BR FEW008 SCT015=


U.S. Dept. of Commerce
NOAA National Weather Service
1325 East West Highway
Silver Spring, MD 20910
E-mail: w-nws.webmaster@noaa.gov
Page last modified: May 16, 2007
NATIONAL WEATHER SERVICE: for Safety, for Work, for Fun - FOR LIFE